When you browse on this site, cookies collect data to enhance your experience and personalize the content and advertising you see.
Visit our Privacy Policy to learn more. By continuing to use the site, you agree to this use of cookies and data.
  • In France
  • List of Countries
  • For 7 days
  • Water Temperature
  • Satellite Maps
  • Weather Map
  • Weather Widgets
  • user-avatar
    Login

    Hourly Weather Wien

    Today, 26 June, Wednesday

    Time Temperature Precipitation Wind Pressure Humidity
    00:00 +25°C° 0 mm 2 mps 750 mmHg 75%
    01:00 +24°C° 0 mm 2 mps 750 mmHg 79%
    02:00 +24°C° 0 mm 2 mps 750 mmHg 81%
    03:00 +23°C° 0 mm 2 mps 749 mmHg 83%
    04:00 +23°C° 0 mm 2 mps 749 mmHg 84%
    05:00 +24°C° 0 mm 2 mps 749 mmHg 80%
    06:00 +25°C° 0 mm 2 mps 750 mmHg 75%
    07:00 +27°C° 0 mm 2 mps 750 mmHg 70%
    08:00 +29°C° 0 mm 2 mps 750 mmHg 64%
    09:00 +30°C° 0 mm 2 mps 750 mmHg 58%
    10:00 +33°C° 0 mm 3 mps 750 mmHg 51%
    11:00 +34°C° 0 mm 3 mps 750 mmHg 48%
    12:00 +35°C° 0 mm 3 mps 750 mmHg 45%
    13:00 +36°C° 0 mm 3 mps 750 mmHg 42%
    14:00 +36°C° 0 mm 3 mps 749 mmHg 43%
    15:00 +36°C° 0 mm 3 mps 749 mmHg 43%
    16:00 +36°C° 0 mm 3 mps 748 mmHg 44%
    17:00 +35°C° 0 mm 2 mps 748 mmHg 50%
    18:00 +32°C° 0 mm 2 mps 748 mmHg 56%
    19:00 +31°C° 0 mm 1 mps 748 mmHg 62%
    20:00 +30°C° 0 mm 1 mps 748 mmHg 65%
    21:00 +28°C° 0 mm 1 mps 748 mmHg 67%
    22:00 +27°C° 0 mm 1 mps 748 mmHg 70%
    23:00 +27°C° 0 mm 1 mps 748 mmHg 70%

    Tomorrow, 27 June, Thursday

    Time Temperature Precipitation Wind Pressure Humidity
    00:00 +27°C° 0 mm 1 mps 748 mmHg 69%
    01:00 +26°C° 0 mm 1 mps 748 mmHg 69%
    02:00 +26°C° 0 mm 1 mps 748 mmHg 70%
    03:00 +25°C° 0 mm 1 mps 747 mmHg 71%
    04:00 +25°C° 0 mm 1 mps 747 mmHg 72%
    05:00 +26°C° 0 mm 2 mps 747 mmHg 70%
    06:00 +27°C° 0 mm 3 mps 747 mmHg 68%
    07:00 +28°C° 0 mm 4 mps 746 mmHg 66%
    08:00 +29°C° 0.1 mm 4 mps 747 mmHg 64%
    09:00 +30°C° 0.1 mm 4 mps 747 mmHg 62%
    10:00 +32°C° 0.1 mm 5 mps 747 mmHg 60%
    11:00 +32°C° 0.1 mm 5 mps 746 mmHg 59%
    12:00 +32°C° 0.1 mm 5 mps 746 mmHg 59%
    13:00 +32°C° 0.1 mm 5 mps 746 mmHg 59%
    14:00 +32°C° 0.4 mm 6 mps 746 mmHg 57%
    15:00 +30°C° 0.4 mm 6 mps 746 mmHg 55%
    16:00 +30°C° 0.4 mm 6 mps 746 mmHg 54%
    17:00 +28°C° 0 mm 6 mps 746 mmHg 52%
    18:00 +26°C° 0 mm 5 mps 746 mmHg 50%
    19:00 +25°C° 0 mm 5 mps 746 mmHg 48%
    20:00 +22°C° 0 mm 5 mps 746 mmHg 51%
    21:00 +21°C° 0 mm 4 mps 746 mmHg 53%
    22:00 +20°C° 0 mm 3 mps 747 mmHg 56%
    23:00 +19°C° 0 mm 3 mps 747 mmHg 58%

    Day after tomorrow, 28 June, Friday

    Time Temperature Precipitation Wind Pressure Humidity
    00:00 +19°C° 0 mm 3 mps 747 mmHg 60%
    01:00 +18°C° 0 mm 4 mps 747 mmHg 62%
    02:00 +18°C° 0 mm 3 mps 747 mmHg 65%
    03:00 +17°C° 0 mm 3 mps 747 mmHg 69%
    04:00 +16°C° 0 mm 3 mps 747 mmHg 73%
    05:00 +17°C° 0 mm 3 mps 747 mmHg 71%
    06:00 +18°C° 0 mm 4 mps 747 mmHg 68%
    07:00 +19°C° 0 mm 4 mps 747 mmHg 66%
    08:00 +20°C° 0 mm 4 mps 747 mmHg 61%
    09:00 +22°C° 0 mm 4 mps 747 mmHg 56%
    10:00 +23°C° 0 mm 4 mps 747 mmHg 52%
    11:00 +25°C° 0 mm 4 mps 747 mmHg 49%
    12:00 +26°C° 0 mm 4 mps 747 mmHg 46%
    13:00 +26°C° 0 mm 4 mps 746 mmHg 43%
    14:00 +26°C° 0 mm 4 mps 746 mmHg 43%
    15:00 +27°C° 0 mm 4 mps 746 mmHg 43%
    16:00 +27°C° 0 mm 4 mps 746 mmHg 43%
    17:00 +26°C° 0 mm 4 mps 746 mmHg 49%
    18:00 +25°C° 0 mm 3 mps 746 mmHg 54%
    19:00 +24°C° 0 mm 3 mps 746 mmHg 59%
    20:00 +21°C° 0 mm 2 mps 747 mmHg 63%
    21:00 +20°C° 0 mm 2 mps 747 mmHg 67%
    22:00 +19°C° 0 mm 2 mps 747 mmHg 71%
    23:00 +18°C° 0 mm 2 mps 747 mmHg 73%

    29 June, Saturday

    Time Temperature Precipitation Wind Pressure Humidity
    00:00 +19°C° 0 mm 1 mps 747 mmHg 75%
    01:00 +18°C° 0 mm 1 mps 747 mmHg 78%
    02:00 +18°C° 0 mm 1 mps 747 mmHg 79%
    03:00 +18°C° 0 mm 1 mps 747 mmHg 80%
    04:00 +16°C° 0 mm 1 mps 747 mmHg 81%
    05:00 +18°C° 0 mm 1 mps 747 mmHg 75%
    06:00 +20°C° 0 mm 1 mps 747 mmHg 70%
    07:00 +20°C° 0 mm 2 mps 747 mmHg 64%
    08:00 +21°C° 0 mm 2 mps 747 mmHg 57%
    09:00 +24°C° 0 mm 2 mps 748 mmHg 50%
    10:00 +25°C° 0 mm 3 mps 748 mmHg 43%
    11:00 +26°C° 0 mm 3 mps 748 mmHg 40%
    12:00 +27°C° 0 mm 3 mps 747 mmHg 36%
    13:00 +28°C° 0 mm 3 mps 747 mmHg 32%
    14:00 +28°C° 0 mm 3 mps 747 mmHg 33%
    15:00 +28°C° 0 mm 2 mps 747 mmHg 34%
    16:00 +28°C° 0 mm 2 mps 746 mmHg 35%
    17:00 +26°C° 0 mm 3 mps 747 mmHg 44%
    18:00 +25°C° 0 mm 2 mps 747 mmHg 49%
    19:00 +24°C° 0 mm 2 mps 747 mmHg 55%
    20:00 +21°C° 0 mm 2 mps 747 mmHg 58%
    21:00 +21°C° 0 mm 1 mps 747 mmHg 60%
    22:00 +20°C° 0 mm 1 mps 747 mmHg 63%
    23:00 +20°C° 0 mm 1 mps 747 mmHg 64%

    30 June, Sunday

    Time Temperature Precipitation Wind Pressure Humidity
    00:00 +19°C° 0 mm 1 mps 747 mmHg 65%
    01:00 +19°C° 0 mm 1 mps 747 mmHg 67%
    02:00 +18°C° 0 mm 2 mps 747 mmHg 68%
    03:00 +17°C° 0 mm 2 mps 747 mmHg 69%
    04:00 +17°C° 0 mm 2 mps 747 mmHg 70%
    05:00 +18°C° 0 mm 2 mps 747 mmHg 67%
    06:00 +19°C° 0 mm 3 mps 747 mmHg 64%
    07:00 +20°C° 0 mm 3 mps 747 mmHg 61%
    08:00 +22°C° 0 mm 4 mps 747 mmHg 56%
    09:00 +25°C° 0 mm 4 mps 747 mmHg 51%
    10:00 +27°C° 0 mm 5 mps 747 mmHg 47%
    11:00 +28°C° 0 mm 5 mps 747 mmHg 45%
    12:00 +29°C° 0 mm 5 mps 746 mmHg 43%
    13:00 +32°C° 0 mm 6 mps 746 mmHg 42%
    14:00 +32°C° 0 mm 5 mps 746 mmHg 42%
    15:00 +32°C° 0 mm 5 mps 746 mmHg 43%
    16:00 +32°C° 0 mm 5 mps 745 mmHg 44%
    17:00 +30°C° 0 mm 5 mps 745 mmHg 49%
    18:00 +29°C° 0 mm 4 mps 745 mmHg 55%
    19:00 +27°C° 0 mm 4 mps 745 mmHg 60%
    20:00 +26°C° 0 mm 4 mps 745 mmHg 63%
    21:00 +25°C° 0 mm 3 mps 746 mmHg 66%
    22:00 +24°C° 0 mm 3 mps 746 mmHg 68%
    23:00 +23°C° 0 mm 2 mps 746 mmHg 70%

    1 July, Monday

    Time Temperature Precipitation Wind Pressure Humidity
    00:00 +23°C° 0 mm 2 mps 746 mmHg 72%
    01:00 +22°C° 0 mm 1 mps 745 mmHg 74%
    02:00 +22°C° 0 mm 1 mps 745 mmHg 76%
    03:00 +21°C° 0 mm 1 mps 745 mmHg 78%
    04:00 +21°C° 0 mm 1 mps 745 mmHg 80%
    05:00 +22°C° 0 mm 1 mps 745 mmHg 75%
    06:00 +23°C° 0 mm 1 mps 745 mmHg 71%
    07:00 +25°C° 0 mm 1 mps 745 mmHg 67%
    08:00 +27°C° 0 mm 2 mps 745 mmHg 62%
    09:00 +28°C° 0 mm 2 mps 744 mmHg 57%
    10:00 +30°C° 0 mm 2 mps 744 mmHg 52%
    11:00 +31°C° 0 mm 3 mps 744 mmHg 49%
    12:00 +34°C° 0 mm 3 mps 744 mmHg 46%
    13:00 +35°C° 0 mm 3 mps 743 mmHg 43%
    14:00 +35°C° 0 mm 4 mps 743 mmHg 42%
    15:00 +36°C° 0 mm 4 mps 742 mmHg 42%
    16:00 +36°C° 0 mm 4 mps 742 mmHg 41%
    17:00 +34°C° 0 mm 4 mps 742 mmHg 46%
    18:00 +33°C° 0 mm 4 mps 742 mmHg 50%
    19:00 +31°C° 0 mm 3 mps 742 mmHg 55%
    20:00 +29°C° 0.2 mm 3 mps 742 mmHg 56%
    21:00 +28°C° 0.2 mm 3 mps 742 mmHg 57%
    22:00 +27°C° 0.2 mm 3 mps 743 mmHg 58%
    23:00 +27°C° 0 mm 3 mps 743 mmHg 61%
    Show more